Year,Month,Day,Hour,Minute,Value (Times are PST for insolation in W/m^2)
2006,09,13,00,00,0.00
2006,09,13,00,01,0.00
2006,09,13,00,02,0.00
2006,09,13,00,03,0.00
2006,09,13,00,04,0.00
2006,09,13,00,05,0.00
2006,09,13,00,06,0.00
2006,09,13,00,07,0.00
2006,09,13,00,08,0.00
2006,09,13,00,09,0.00
2006,09,13,00,10,0.00
2006,09,13,00,11,0.00
2006,09,13,00,12,0.00
2006,09,13,00,13,0.00
2006,09,13,00,14,0.00
2006,09,13,00,15,0.00
2006,09,13,00,16,0.00
2006,09,13,00,17,0.00
2006,09,13,00,18,0.00
2006,09,13,00,19,0.00
2006,09,13,00,20,0.00
2006,09,13,00,21,0.00
2006,09,13,00,22,0.00
2006,09,13,00,23,0.00
2006,09,13,00,24,0.00
2006,09,13,00,25,0.00
2006,09,13,00,26,0.00
2006,09,13,00,27,0.00
2006,09,13,00,28,0.00
2006,09,13,00,29,0.00
2006,09,13,00,30,0.00
2006,09,13,00,31,0.00
2006,09,13,00,32,0.00
2006,09,13,00,33,0.00
2006,09,13,00,34,0.00
2006,09,13,00,35,0.00
2006,09,13,00,36,0.00
2006,09,13,00,37,0.00
2006,09,13,00,38,0.00
2006,09,13,00,39,0.00
2006,09,13,00,40,0.00
2006,09,13,00,41,0.00
2006,09,13,00,42,0.00
2006,09,13,00,43,0.00
2006,09,13,00,44,0.00
2006,09,13,00,45,0.00
2006,09,13,00,46,0.00
2006,09,13,00,47,0.00
2006,09,13,00,48,0.00
2006,09,13,00,49,0.00
2006,09,13,00,50,0.00
2006,09,13,00,51,0.00
2006,09,13,00,52,0.00
2006,09,13,00,53,0.00
2006,09,13,00,54,0.00
2006,09,13,00,55,0.00
2006,09,13,00,56,0.00
2006,09,13,00,57,0.00
2006,09,13,00,58,0.00
2006,09,13,00,59,0.00
2006,09,13,01,00,0.00
2006,09,13,01,01,0.00
2006,09,13,01,02,0.00
2006,09,13,01,03,0.00
2006,09,13,01,04,0.00
2006,09,13,01,05,0.00
2006,09,13,01,06,0.00
2006,09,13,01,07,0.00
2006,09,13,01,08,0.00
2006,09,13,01,09,0.00
2006,09,13,01,10,0.00
2006,09,13,01,11,0.00
2006,09,13,01,12,0.00
2006,09,13,01,13,0.00
2006,09,13,01,14,0.00
2006,09,13,01,15,0.00
2006,09,13,01,16,0.00
2006,09,13,01,17,0.00
2006,09,13,01,18,0.00
2006,09,13,01,19,0.00
2006,09,13,01,20,0.00
2006,09,13,01,21,0.00
2006,09,13,01,22,0.00
2006,09,13,01,23,0.00
2006,09,13,01,24,0.00
2006,09,13,01,25,0.00
2006,09,13,01,26,0.00
2006,09,13,01,27,0.00
2006,09,13,01,28,0.00
2006,09,13,01,29,0.00
2006,09,13,01,30,0.00
2006,09,13,01,31,0.00
2006,09,13,01,32,0.00
2006,09,13,01,33,0.00
2006,09,13,01,34,0.00
2006,09,13,09,46,248.00
2006,09,13,09,47,248.00
2006,09,13,09,48,257.80
2006,09,13,09,49,264.20
2006,09,13,09,50,251.60
2006,09,13,09,51,248.00
2006,09,13,09,52,248.00
2006,09,13,09,53,246.20
2006,09,13,09,54,246.00
2006,09,13,09,55,236.00
2006,09,13,09,56,233.80
2006,09,13,09,57,232.00
2006,09,13,09,58,232.00
2006,09,13,09,59,232.00
2006,09,13,10,00,232.50
2006,09,13,10,01,234.90
2006,09,13,10,02,238.80
2006,09,13,10,03,244.80
2006,09,13,10,04,248.00
2006,09,13,10,05,248.00
2006,09,13,10,06,256.10
2006,09,13,10,07,263.40
2006,09,13,10,08,260.90
2006,09,13,10,09,258.80
2006,09,13,10,10,251.80
2006,09,13,10,11,245.20
2006,09,13,10,12,244.00
2006,09,13,10,13,235.00
2006,09,13,10,14,236.00
2006,09,13,10,15,236.20
2006,09,13,10,16,236.00
2006,09,13,10,17,236.00
2006,09,13,10,18,234.00
2006,09,13,10,19,229.00
2006,09,13,10,20,229.00
2006,09,13,10,21,229.00
2006,09,13,10,22,229.00
2006,09,13,10,23,229.80
2006,09,13,10,24,233.20
2006,09,13,10,25,237.10
2006,09,13,10,26,239.00
2006,09,13,10,27,241.80
2006,09,13,10,28,248.90
2006,09,13,10,29,257.00
2006,09,13,10,30,262.00
2006,09,13,10,31,270.80
2006,09,13,10,32,276.80
2006,09,13,10,33,283.60
2006,09,13,10,34,286.00
2006,09,13,10,35,285.00
2006,09,13,10,36,286.50
2006,09,13,10,37,271.00
2006,09,13,10,38,264.50
2006,09,13,10,39,264.00
2006,09,13,10,40,264.00
2006,09,13,10,41,264.00
2006,09,13,10,42,269.00
2006,09,13,10,43,268.60
2006,09,13,10,44,265.00
2006,09,13,10,45,265.40
2006,09,13,10,46,269.20
2006,09,13,10,47,280.20
2006,09,13,10,48,285.10
2006,09,13,10,49,275.30
2006,09,13,10,50,274.00
2006,09,13,10,51,272.00
2006,09,13,10,52,268.00
2006,09,13,10,53,269.10
2006,09,13,10,54,269.90
2006,09,13,10,55,266.40
2006,09,13,10,56,264.40
2006,09,13,10,57,264.70
2006,09,13,10,58,265.00
2006,09,13,10,59,268.00
2006,09,13,11,00,270.60
2006,09,13,11,01,271.00
2006,09,13,11,02,277.30
2006,09,13,11,03,284.60
2006,09,13,11,04,285.90
2006,09,13,11,05,304.00
2006,09,13,11,06,301.00
2006,09,13,11,07,275.90
2006,09,13,11,08,288.30
2006,09,13,11,09,295.00
2006,09,13,11,10,299.90
2006,09,13,11,11,308.30
2006,09,13,11,12,313.30
2006,09,13,11,13,295.30
2006,09,13,11,14,299.10
2006,09,13,11,15,302.00
2006,09,13,11,16,320.50
2006,09,13,11,17,362.10
2006,09,13,11,18,348.80
2006,09,13,11,19,329.00
2006,09,13,11,20,308.00
2006,09,13,11,21,295.20
2006,09,13,11,22,336.60
2006,09,13,11,23,312.80
2006,09,13,11,24,316.00
2006,09,13,11,25,297.20
2006,09,13,11,26,281.70
2006,09,13,11,27,272.00
2006,09,13,11,28,271.60
2006,09,13,11,29,266.10
2006,09,13,11,30,284.40
2006,09,13,11,31,280.60
2006,09,13,11,32,280.00
2006,09,13,11,33,283.60
2006,09,13,11,34,286.50
2006,09,13,11,35,289.00
2006,09,13,11,36,287.00
2006,09,13,11,37,284.40
2006,09,13,11,38,288.60
2006,09,13,11,39,299.80
2006,09,13,11,40,301.40
2006,09,13,11,41,294.20
2006,09,13,11,42,284.30
2006,09,13,11,43,265.00
2006,09,13,11,44,244.10
2006,09,13,11,45,229.90
2006,09,13,11,46,231.00
2006,09,13,11,47,232.00
2006,09,13,11,48,236.50
2006,09,13,11,49,243.60
2006,09,13,11,50,244.00
2006,09,13,11,51,278.30
2006,09,13,11,52,264.50
2006,09,13,11,53,266.90
2006,09,13,11,54,254.20
2006,09,13,11,55,255.30
2006,09,13,11,56,271.10
2006,09,13,11,57,279.70
2006,09,13,11,58,293.30
2006,09,13,11,59,306.70
2006,09,13,12,00,311.00
2006,09,13,12,01,314.10
2006,09,13,12,02,320.10
2006,09,13,12,03,316.90
2006,09,13,12,04,305.80
2006,09,13,12,05,290.60
2006,09,13,12,06,272.40
2006,09,13,12,07,249.80
2006,09,13,12,08,234.40
2006,09,13,12,09,229.40
2006,09,13,12,10,222.20
2006,09,13,12,11,213.80
2006,09,13,12,12,209.20
2006,09,13,12,13,206.90
2006,09,13,12,14,205.90
2006,09,13,12,15,203.50
2006,09,13,12,16,198.00
2006,09,13,12,17,192.80
2006,09,13,12,18,198.80
2006,09,13,12,19,204.90
2006,09,13,12,20,207.00
2006,09,13,12,21,207.70
2006,09,13,12,22,209.00
2006,09,13,12,23,204.50
2006,09,13,12,24,193.50
2006,09,13,12,25,181.70
2006,09,13,12,26,173.10
2006,09,13,12,27,174.10
2006,09,13,12,28,182.30
2006,09,13,12,29,197.70
2006,09,13,12,30,208.90
2006,09,13,12,31,213.20
2006,09,13,12,32,226.00
2006,09,13,12,33,234.90
2006,09,13,12,34,236.00
2006,09,13,12,35,230.30
2006,09,13,12,36,229.00
2006,09,13,12,37,243.90
2006,09,13,12,38,263.40
2006,09,13,12,39,272.90
2006,09,13,12,40,252.60
2006,09,13,12,41,240.80
2006,09,13,12,42,232.60
2006,09,13,12,43,230.60
2006,09,13,12,44,242.80
2006,09,13,12,45,263.80
2006,09,13,12,46,275.80
2006,09,13,12,47,278.50
2006,09,13,12,48,284.80
2006,09,13,12,49,288.90
2006,09,13,12,50,289.20
2006,09,13,12,51,282.70
2006,09,13,12,52,275.50
2006,09,13,12,53,277.50
2006,09,13,12,54,268.30
2006,09,13,12,55,250.60
2006,09,13,12,56,234.30
2006,09,13,12,57,232.00
2006,09,13,12,58,222.00
2006,09,13,12,59,216.00
2006,09,13,13,00,208.10
2006,09,13,13,01,200.60
2006,09,13,13,02,205.70
2006,09,13,13,03,205.00
2006,09,13,13,04,205.70
2006,09,13,13,05,202.40
2006,09,13,13,06,213.30
2006,09,13,13,07,196.60
2006,09,13,13,08,197.70
2006,09,13,13,09,202.50
2006,09,13,13,10,192.50
2006,09,13,13,11,211.10
2006,09,13,13,12,216.30
2006,09,13,13,13,209.20
2006,09,13,13,14,203.50
2006,09,13,13,15,180.70
2006,09,13,13,16,187.20
2006,09,13,13,17,229.00
2006,09,13,13,18,200.20
2006,09,13,13,19,224.00
2006,09,13,13,20,263.50
2006,09,13,13,21,267.00
2006,09,13,13,22,267.00
2006,09,13,13,23,273.40
2006,09,13,13,24,217.80
2006,09,13,13,25,199.00
2006,09,13,13,26,218.20
2006,09,13,13,27,273.70
2006,09,13,13,28,233.50
2006,09,13,13,29,305.60
2006,09,13,13,30,361.60
2006,09,13,13,31,373.00
2006,09,13,13,32,294.20
2006,09,13,13,33,216.90
2006,09,13,13,34,296.10
2006,09,13,13,35,321.70
2006,09,13,13,36,323.00
2006,09,13,13,37,486.80
2006,09,13,13,38,575.00
2006,09,13,13,39,503.60
2006,09,13,13,40,475.00
2006,09,13,13,41,475.00
2006,09,13,13,42,475.00
2006,09,13,13,43,393.60
2006,09,13,13,44,406.90
2006,09,13,13,45,410.00
2006,09,13,13,46,410.00
2006,09,13,13,47,410.00
2006,09,13,13,48,410.00
2006,09,13,13,49,419.00
2006,09,13,13,50,456.40
2006,09,13,13,51,462.40
2006,09,13,13,52,462.00
2006,09,13,13,53,488.30
2006,09,13,13,54,552.00
2006,09,13,13,55,552.00
2006,09,13,13,56,552.00
2006,09,13,13,57,610.80
2006,09,13,13,58,659.00
2006,09,13,13,59,842.60
2006,09,13,14,00,965.00
2006,09,13,14,01,965.00
2006,09,13,14,02,1010.00
2006,09,13,14,03,1025.00
2006,09,13,14,04,1025.00
2006,09,13,14,05,954.50
2006,09,13,14,06,950.10
2006,09,13,14,07,940.50
2006,09,13,14,08,937.00
2006,09,13,14,09,937.00
2006,09,13,14,10,877.20
2006,09,13,14,11,538.00
2006,09,13,14,12,538.00
2006,09,13,14,13,657.50
2006,09,13,14,14,1016.00
2006,09,13,14,15,1016.00
2006,09,13,14,16,813.00
2006,09,13,14,17,416.60
2006,09,13,14,18,373.00
2006,09,13,14,19,362.70
2006,09,13,14,20,395.40
2006,09,13,14,21,417.00
2006,09,13,14,22,417.00
2006,09,13,14,23,406.30
2006,09,13,14,24,415.70
2006,09,13,14,25,459.80
2006,09,13,14,26,438.70
2006,09,13,14,27,482.20
2006,09,13,14,28,442.90
2006,09,13,14,29,402.30
2006,09,13,14,30,402.80
2006,09,13,14,31,374.00
2006,09,13,14,32,361.10
2006,09,13,14,33,313.20
2006,09,13,14,34,295.70
2006,09,13,14,35,295.00
2006,09,13,14,36,340.80
2006,09,13,14,37,388.00
2006,09,13,14,38,336.00
2006,09,13,14,39,230.20
2006,09,13,14,40,223.90
2006,09,13,14,41,216.30
2006,09,13,14,42,214.00
2006,09,13,14,43,218.70
2006,09,13,14,44,231.00
2006,09,13,14,45,240.60
2006,09,13,14,46,244.90
2006,09,13,14,47,244.60
2006,09,13,14,48,240.20
2006,09,13,14,49,229.40
2006,09,13,14,50,217.60
2006,09,13,14,51,222.30
2006,09,13,14,52,221.20
2006,09,13,14,53,218.10
2006,09,13,14,54,220.50
2006,09,13,14,55,230.70
2006,09,13,14,56,238.90
2006,09,13,14,57,259.00
2006,09,13,14,58,283.00
2006,09,13,14,59,283.00
2006,09,13,15,00,283.00
2006,09,13,15,01,304.70
2006,09,13,15,02,348.00
2006,09,13,15,03,530.00
2006,09,13,15,04,803.00
2006,09,13,15,05,543.00
2006,09,13,15,06,295.00
2006,09,13,15,07,306.00
2006,09,13,15,08,606.20
2006,09,13,15,09,761.70
2006,09,13,15,10,747.00
2006,09,13,15,11,402.00
2006,09,13,15,12,276.80
2006,09,13,15,13,247.00
2006,09,13,15,14,203.90
2006,09,13,15,15,195.50
2006,09,13,15,16,203.60
2006,09,13,15,17,204.00
2006,09,13,15,18,211.10
2006,09,13,15,19,215.00
2006,09,13,15,20,223.20
2006,09,13,15,21,238.90
2006,09,13,15,22,252.00
2006,09,13,15,23,251.40
2006,09,13,15,24,236.70
2006,09,13,15,25,223.00
2006,09,13,15,26,223.00
2006,09,13,15,27,223.00
2006,09,13,15,28,223.00
2006,09,13,15,29,465.50
2006,09,13,15,30,699.80
2006,09,13,15,31,690.50
2006,09,13,15,32,685.70
2006,09,13,15,33,674.20
2006,09,13,15,34,653.60
2006,09,13,15,35,714.20
2006,09,13,15,36,734.20
2006,09,13,15,37,735.00
2006,09,13,15,38,720.70
2006,09,13,15,39,721.90
2006,09,13,15,40,720.10
2006,09,13,15,41,742.80
2006,09,13,15,42,754.80
2006,09,13,15,43,729.60
2006,09,13,15,44,763.00
2006,09,13,15,45,763.00
2006,09,13,15,46,763.00
2006,09,13,15,47,658.60
2006,09,13,15,48,422.00
2006,09,13,15,49,436.00
2006,09,13,15,50,436.00
2006,09,13,15,51,436.00
2006,09,13,15,52,571.80
2006,09,13,15,53,688.30
2006,09,13,15,54,678.20
2006,09,13,15,55,675.00
2006,09,13,15,56,675.00
2006,09,13,15,57,675.00
2006,09,13,15,58,675.00
2006,09,13,15,59,675.00
2006,09,13,16,00,684.80
2006,09,13,16,01,687.00
2006,09,13,16,02,687.00
2006,09,13,16,03,655.60
2006,09,13,16,04,654.00
2006,09,13,16,05,654.00
2006,09,13,16,06,651.40
2006,09,13,16,07,635.80
2006,09,13,16,08,635.00
2006,09,13,16,09,635.00
2006,09,13,16,10,549.40
2006,09,13,16,11,364.00
2006,09,13,16,12,295.60
2006,09,13,16,13,199.30
2006,09,13,16,14,196.50
2006,09,13,16,15,179.20
2006,09,13,16,16,174.00
2006,09,13,16,17,172.70
2006,09,13,16,18,190.50
2006,09,13,16,19,199.00
2006,09,13,16,20,268.80
2006,09,13,16,21,292.00
2006,09,13,16,22,292.00
2006,09,13,16,23,223.10
2006,09,13,16,24,211.00
2006,09,13,16,25,213.70
2006,09,13,16,26,215.20
2006,09,13,16,27,199.40
2006,09,13,16,28,187.50
2006,09,13,16,29,183.30
2006,09,13,16,30,186.20
2006,09,13,16,31,194.70
2006,09,13,16,32,197.00
2006,09,13,16,33,188.70
2006,09,13,16,34,190.90
2006,09,13,16,35,200.00
2006,09,13,16,36,200.00
2006,09,13,16,37,200.00
2006,09,13,16,38,200.00
2006,09,13,16,39,406.30
2006,09,13,16,40,561.00
2006,09,13,16,41,561.00
2006,09,13,16,42,543.50
2006,09,13,16,43,536.00
2006,09,13,16,44,492.50
2006,09,13,16,45,478.00
2006,09,13,16,46,333.50
2006,09,13,16,47,308.00
2006,09,13,16,48,500.40
2006,09,13,16,49,503.90
2006,09,13,16,50,501.10
2006,09,13,16,51,503.30
2006,09,13,16,52,506.30
2006,09,13,16,53,508.00
2006,09,13,16,54,511.20
2006,09,13,16,55,524.00
2006,09,13,16,56,520.30
2006,09,13,16,57,513.00
2006,09,13,16,58,507.40
2006,09,13,16,59,491.70
2006,09,13,17,00,466.80
2006,09,13,17,01,430.60
2006,09,13,17,02,398.10
2006,09,13,17,03,379.20
2006,09,13,17,04,369.00
2006,09,13,17,05,371.00
2006,09,13,17,06,382.00
2006,09,13,17,07,397.80
2006,09,13,17,08,414.00
2006,09,13,17,09,427.20
2006,09,13,17,10,447.90
2006,09,13,17,11,460.50
2006,09,13,17,12,464.00
2006,09,13,17,13,456.00
2006,09,13,17,14,415.80
2006,09,13,17,15,338.80
2006,09,13,17,16,245.10
2006,09,13,17,17,165.20
2006,09,13,17,18,138.00
2006,09,13,17,19,149.40
2006,09,13,17,20,157.80
2006,09,13,17,21,134.90
2006,09,13,17,22,139.30
2006,09,13,17,23,148.50
2006,09,13,17,24,133.30
2006,09,13,17,25,120.00
2006,09,13,17,26,123.20
2006,09,13,17,27,138.60
2006,09,13,17,28,183.80
2006,09,13,17,29,184.30
2006,09,13,17,30,156.20
2006,09,13,17,31,176.50
2006,09,13,17,32,183.00
2006,09,13,17,33,183.00
2006,09,13,17,34,141.10
2006,09,13,17,35,93.00
2006,09,13,17,36,80.80
2006,09,13,17,37,76.30
2006,09,13,17,38,80.00
2006,09,13,17,39,88.10
2006,09,13,17,40,98.90
2006,09,13,17,41,106.80
2006,09,13,17,42,110.30
2006,09,13,17,43,107.50
2006,09,13,17,44,103.80
2006,09,13,17,45,100.30
2006,09,13,17,46,96.60
2006,09,13,17,47,92.80
2006,09,13,17,48,90.40
2006,09,13,17,49,88.80
2006,09,13,17,50,88.00
2006,09,13,17,51,88.00
2006,09,13,17,52,88.00
2006,09,13,17,53,88.00
2006,09,13,17,54,86.40
2006,09,13,17,55,83.40
2006,09,13,17,56,77.60
2006,09,13,17,57,72.20
2006,09,13,17,58,69.00
2006,09,13,17,59,68.80
2006,09,13,18,00,67.00
2006,09,13,18,01,66.00
2006,09,13,18,02,62.00
2006,09,13,18,03,61.50
2006,09,13,18,04,59.40
2006,09,13,18,05,57.40
2006,09,13,18,06,55.00
2006,09,13,18,07,53.00
2006,09,13,18,08,47.50
2006,09,13,18,09,36.70
2006,09,13,18,10,31.40
2006,09,13,18,11,27.10
2006,09,13,18,12,23.80
2006,09,13,18,13,21.70
2006,09,13,18,14,21.00
2006,09,13,18,15,22.50
2006,09,13,18,16,23.00
2006,09,13,18,17,23.00
2006,09,13,18,18,23.00
2006,09,13,18,19,23.00
2006,09,13,18,20,23.00
2006,09,13,18,21,23.00
2006,09,13,18,22,23.00
2006,09,13,18,23,23.00
2006,09,13,18,24,23.00
2006,09,13,18,25,23.40
2006,09,13,18,26,25.20
2006,09,13,18,27,27.50
2006,09,13,18,28,32.90
2006,09,13,18,29,36.30
2006,09,13,18,30,40.90
2006,09,13,18,31,46.00
2006,09,13,18,32,51.40
2006,09,13,18,33,56.10
2006,09,13,18,34,60.30
2006,09,13,18,35,63.80
2006,09,13,18,36,67.60
2006,09,13,18,37,69.70
2006,09,13,18,38,83.50
2006,09,13,18,39,103.80
2006,09,13,18,40,109.00
2006,09,13,18,41,105.40
2006,09,13,18,42,88.80
2006,09,13,18,43,70.60
2006,09,13,18,44,68.00
2006,09,13,18,45,49.00
2006,09,13,18,46,49.00
2006,09,13,18,47,49.30
2006,09,13,18,48,51.40
2006,09,13,18,49,53.00
2006,09,13,18,50,53.00
2006,09,13,18,51,52.40
2006,09,13,18,52,50.20
2006,09,13,18,53,48.20
2006,09,13,18,54,45.70
2006,09,13,18,55,43.10
2006,09,13,18,56,42.00
2006,09,13,18,57,40.90
2006,09,13,18,58,40.00
2006,09,13,18,59,39.30
2006,09,13,19,00,37.60
2006,09,13,19,01,35.50
2006,09,13,19,02,32.70
2006,09,13,19,03,30.40
2006,09,13,19,04,30.00
2006,09,13,19,05,30.00
2006,09,13,19,06,28.10
2006,09,13,19,07,28.00
2006,09,13,19,08,27.90
2006,09,13,19,09,25.90
2006,09,13,19,10,24.70
2006,09,13,19,11,22.70
2006,09,13,19,12,20.50
2006,09,13,19,13,19.00
2006,09,13,19,14,19.00
2006,09,13,19,15,19.00
2006,09,13,19,16,19.00
2006,09,13,19,17,18.60
2006,09,13,19,18,18.00
2006,09,13,19,19,17.00
2006,09,13,19,20,16.00
2006,09,13,19,21,16.00
2006,09,13,19,22,16.00
2006,09,13,19,23,16.00
2006,09,13,19,24,16.00
2006,09,13,19,25,14.50
2006,09,13,19,26,12.40
2006,09,13,19,27,11.10
2006,09,13,19,28,9.20
2006,09,13,19,29,7.10
2006,09,13,19,30,7.00
2006,09,13,19,31,6.80
2006,09,13,19,32,5.00
2006,09,13,19,33,4.20
2006,09,13,19,34,0.00
2006,09,13,19,35,0.00
2006,09,13,19,36,0.00
2006,09,13,19,37,0.00
2006,09,13,19,38,0.00
2006,09,13,19,39,0.00
2006,09,13,19,40,0.00
2006,09,13,19,41,0.00
2006,09,13,19,42,0.00
2006,09,13,19,43,0.00
2006,09,13,19,44,0.00
2006,09,13,19,45,0.00
2006,09,13,19,46,0.00
2006,09,13,19,47,0.00
2006,09,13,19,48,0.00
2006,09,13,19,49,0.00
2006,09,13,19,50,0.00
2006,09,13,19,51,0.00
2006,09,13,19,52,0.00
2006,09,13,19,53,0.00
2006,09,13,19,54,0.00
2006,09,13,19,55,0.00
2006,09,13,19,56,0.00
2006,09,13,19,57,0.00
2006,09,13,19,58,0.00
2006,09,13,19,59,0.00
2006,09,13,20,00,0.00
2006,09,13,20,01,0.00
2006,09,13,20,02,0.00
2006,09,13,20,03,0.00
2006,09,13,20,04,0.00
2006,09,13,20,05,0.00
2006,09,13,20,06,0.00
2006,09,13,20,07,0.00
2006,09,13,20,08,0.00
2006,09,13,20,09,0.00
2006,09,13,20,10,0.00
2006,09,13,20,11,0.00
2006,09,13,20,12,0.00
2006,09,13,20,13,0.00
2006,09,13,20,14,0.00
2006,09,13,20,15,0.00
2006,09,13,20,16,0.00
2006,09,13,20,17,0.00
2006,09,13,20,18,0.00
2006,09,13,20,19,0.00
2006,09,13,20,20,0.00
2006,09,13,20,21,0.00
2006,09,13,20,22,0.00
2006,09,13,20,23,0.00
2006,09,13,20,24,0.00
2006,09,13,20,25,0.00
2006,09,13,20,26,0.00
2006,09,13,20,27,0.00
2006,09,13,20,28,0.00
2006,09,13,20,29,0.00
2006,09,13,20,30,0.00
2006,09,13,20,31,0.00
2006,09,13,20,32,0.00
2006,09,13,20,33,0.00
2006,09,13,20,34,0.00
2006,09,13,20,35,0.00
2006,09,13,20,36,0.00
2006,09,13,20,37,0.00
2006,09,13,20,38,0.00
2006,09,13,20,39,0.00
2006,09,13,20,40,0.00
2006,09,13,20,41,0.00
2006,09,13,20,42,0.00
2006,09,13,20,43,0.00
2006,09,13,20,44,0.00
2006,09,13,20,45,0.00
2006,09,13,20,46,0.00
2006,09,13,20,47,0.00
2006,09,13,20,48,0.00
2006,09,13,20,49,0.00
2006,09,13,20,50,0.00
2006,09,13,20,51,0.00
2006,09,13,20,52,0.00
2006,09,13,20,53,0.00
2006,09,13,20,54,0.00
2006,09,13,20,55,0.00
2006,09,13,20,56,0.00
2006,09,13,20,57,0.00
2006,09,13,20,58,0.00
2006,09,13,20,59,0.00
2006,09,13,21,00,0.00
2006,09,13,21,01,0.00
2006,09,13,21,02,0.00
2006,09,13,21,03,0.00
2006,09,13,21,04,0.00
2006,09,13,21,05,0.00
2006,09,13,21,06,0.00
2006,09,13,21,07,0.00
2006,09,13,21,08,0.00
2006,09,13,21,09,0.00
2006,09,13,21,10,0.00
2006,09,13,21,11,0.00
2006,09,13,21,12,0.00
2006,09,13,21,13,0.00
2006,09,13,21,14,0.00
2006,09,13,21,15,0.00
2006,09,13,21,16,0.00
2006,09,13,21,17,0.00
2006,09,13,21,18,0.00
2006,09,13,21,19,0.00
2006,09,13,21,20,0.00
2006,09,13,21,21,0.00
2006,09,13,21,22,0.00
2006,09,13,21,23,0.00
2006,09,13,21,24,0.00
2006,09,13,21,25,0.00
2006,09,13,21,26,0.00
2006,09,13,21,27,0.00
2006,09,13,21,28,0.00
2006,09,13,21,29,0.00
2006,09,13,21,30,0.00
2006,09,13,21,31,0.00
2006,09,13,21,32,0.00
2006,09,13,21,33,0.00
2006,09,13,21,34,0.00
2006,09,13,21,35,0.00
2006,09,13,21,36,0.00
2006,09,13,21,37,0.00
2006,09,13,21,38,0.00
2006,09,13,21,39,0.00
2006,09,13,21,40,0.00
2006,09,13,21,41,0.00
2006,09,13,21,42,0.00
2006,09,13,21,43,0.00
2006,09,13,21,44,0.00
2006,09,13,21,45,0.00
2006,09,13,21,46,0.00
2006,09,13,21,47,0.00
2006,09,13,21,48,0.00
2006,09,13,21,49,0.00
2006,09,13,21,50,0.00
2006,09,13,21,51,0.00
2006,09,13,21,52,0.00
2006,09,13,21,53,0.00
2006,09,13,21,54,0.00
2006,09,13,21,55,0.00
2006,09,13,21,56,0.00
2006,09,13,21,57,0.00
2006,09,13,21,58,0.00
2006,09,13,21,59,0.00
2006,09,13,22,00,0.00
2006,09,13,22,01,0.00
2006,09,13,22,02,0.00
2006,09,13,22,03,0.00
2006,09,13,22,04,0.00
2006,09,13,22,05,0.00
2006,09,13,22,06,0.00
2006,09,13,22,07,0.00
2006,09,13,22,08,0.00
2006,09,13,22,09,0.00
2006,09,13,22,10,0.00
2006,09,13,22,11,0.00
2006,09,13,22,12,0.00
2006,09,13,22,13,0.00
2006,09,13,22,14,0.00
2006,09,13,22,15,0.00
2006,09,13,22,16,0.00
2006,09,13,22,17,0.00
2006,09,13,22,18,0.00
2006,09,13,22,19,0.00
2006,09,13,22,20,0.00
2006,09,13,22,21,0.00
2006,09,13,22,22,0.00
2006,09,13,22,23,0.00
2006,09,13,22,24,0.00
2006,09,13,22,25,0.00
2006,09,13,22,26,0.00
2006,09,13,22,27,0.00
2006,09,13,22,28,0.00
2006,09,13,22,29,0.00
2006,09,13,22,30,0.00
2006,09,13,22,31,0.00
2006,09,13,22,32,0.00
2006,09,13,22,33,0.00
2006,09,13,22,34,0.00
2006,09,13,22,35,0.00
2006,09,13,22,36,0.00
2006,09,13,22,37,0.00
2006,09,13,22,38,0.00
2006,09,13,22,39,0.00
2006,09,13,22,40,0.00
2006,09,13,22,41,0.00
2006,09,13,22,42,0.00
2006,09,13,22,43,0.00
2006,09,13,22,44,0.00
2006,09,13,22,45,0.00
2006,09,13,22,46,0.00
2006,09,13,22,47,0.00
2006,09,13,22,48,0.00
2006,09,13,22,49,0.00
2006,09,13,22,50,0.00
2006,09,13,22,51,0.00
2006,09,13,22,52,0.00
2006,09,13,22,53,0.00
2006,09,13,22,54,0.00
2006,09,13,22,55,0.00
2006,09,13,22,56,0.00
2006,09,13,22,57,0.00
2006,09,13,22,58,0.00
2006,09,13,22,59,0.00
2006,09,13,23,00,0.00
2006,09,13,23,01,0.00
2006,09,13,23,02,0.00
2006,09,13,23,03,0.00
2006,09,13,23,04,0.00
2006,09,13,23,05,0.00
2006,09,13,23,06,0.00
2006,09,13,23,07,0.00
2006,09,13,23,08,0.00
2006,09,13,23,09,0.00
2006,09,13,23,10,0.00
2006,09,13,23,11,0.00
2006,09,13,23,12,0.00
2006,09,13,23,13,0.00
2006,09,13,23,14,0.00
2006,09,13,23,15,0.00
2006,09,13,23,16,0.00
2006,09,13,23,17,0.00
2006,09,13,23,18,0.00
2006,09,13,23,19,0.00
2006,09,13,23,20,0.00
2006,09,13,23,21,0.00
2006,09,13,23,22,0.00
2006,09,13,23,23,0.00
2006,09,13,23,24,0.00
2006,09,13,23,25,0.00
2006,09,13,23,26,0.00
2006,09,13,23,27,0.00
2006,09,13,23,28,0.00
2006,09,13,23,29,0.00
2006,09,13,23,30,0.00
2006,09,13,23,31,0.00
2006,09,13,23,32,0.00
2006,09,13,23,33,0.00
2006,09,13,23,34,0.00
2006,09,13,23,35,0.00
2006,09,13,23,36,0.00
2006,09,13,23,37,0.00
2006,09,13,23,38,0.00
2006,09,13,23,39,0.00
2006,09,13,23,40,0.00
2006,09,13,23,41,0.00
2006,09,13,23,42,0.00
2006,09,13,23,43,0.00
2006,09,13,23,44,0.00
2006,09,13,23,45,0.00
2006,09,13,23,46,0.00
2006,09,13,23,47,0.00
2006,09,13,23,48,0.00
2006,09,13,23,49,0.00
2006,09,13,23,50,0.00
2006,09,13,23,51,0.00
2006,09,13,23,52,0.00
2006,09,13,23,53,0.00
2006,09,13,23,54,0.00
2006,09,13,23,55,0.00
2006,09,13,23,56,0.00
2006,09,13,23,57,0.00
2006,09,13,23,58,0.00
2006,09,13,23,59,0.00
